Year,Month,Day,Hour,Minute,Value (Times are PST for temperature in C)
2008,08,11,00,00,12.50
2008,08,11,00,01,12.50
2008,08,11,00,02,12.50
2008,08,11,00,03,12.40
2008,08,11,00,04,12.40
2008,08,11,00,05,12.30
2008,08,11,00,06,12.30
2008,08,11,00,07,12.30
2008,08,11,00,08,12.30
2008,08,11,00,09,12.20
2008,08,11,00,10,12.20
2008,08,11,00,11,12.20
2008,08,11,00,12,12.20
2008,08,11,00,13,12.10
2008,08,11,00,14,12.10
2008,08,11,00,15,12.10
2008,08,11,00,16,12.00
2008,08,11,00,17,12.00
2008,08,11,00,18,11.90
2008,08,11,00,19,11.90
2008,08,11,00,20,11.90
2008,08,11,00,21,11.90
2008,08,11,00,22,11.80
2008,08,11,00,23,11.80
2008,08,11,00,24,11.80
2008,08,11,00,25,11.80
2008,08,11,00,26,11.80
2008,08,11,00,27,11.80
2008,08,11,00,28,11.80
2008,08,11,00,29,11.80
2008,08,11,00,30,11.80
2008,08,11,00,31,11.80
2008,08,11,00,32,11.80
2008,08,11,00,33,11.80
2008,08,11,00,34,11.80
2008,08,11,00,35,11.80
2008,08,11,00,36,11.80
2008,08,11,00,37,11.80
2008,08,11,00,38,11.80
2008,08,11,00,39,11.80
2008,08,11,00,40,11.80
2008,08,11,00,41,11.80
2008,08,11,00,42,11.80
2008,08,11,00,43,11.80
2008,08,11,00,44,11.80
2008,08,11,00,45,11.80
2008,08,11,00,46,11.80
2008,08,11,00,47,11.90
2008,08,11,00,48,11.90
2008,08,11,00,49,11.90
2008,08,11,00,50,11.90
2008,08,11,00,51,11.90
2008,08,11,00,52,11.90
2008,08,11,00,53,11.90
2008,08,11,00,54,11.90
2008,08,11,00,55,11.90
2008,08,11,00,56,11.90
2008,08,11,00,57,11.90
2008,08,11,00,58,11.90
2008,08,11,00,59,11.90
2008,08,11,01,00,11.90
2008,08,11,01,01,11.90
2008,08,11,01,02,11.90
2008,08,11,01,03,12.00
2008,08,11,01,04,11.90
2008,08,11,01,05,11.90
2008,08,11,01,06,11.90
2008,08,11,01,07,11.90
2008,08,11,01,08,11.90
2008,08,11,01,09,12.00
2008,08,11,01,10,12.00
2008,08,11,01,11,12.00
2008,08,11,01,12,12.00
2008,08,11,01,13,11.90
2008,08,11,01,14,11.90
2008,08,11,01,15,11.90
2008,08,11,01,16,11.90
2008,08,11,01,17,11.90
2008,08,11,01,18,11.90
2008,08,11,01,19,11.90
2008,08,11,01,20,11.90
2008,08,11,01,21,11.90
2008,08,11,01,22,11.90
2008,08,11,01,23,11.90
2008,08,11,01,24,11.90
2008,08,11,01,25,11.90
2008,08,11,01,26,11.90
2008,08,11,01,27,11.90
2008,08,11,01,28,11.90
2008,08,11,01,29,11.90
2008,08,11,01,30,11.90
2008,08,11,01,31,11.90
2008,08,11,01,32,11.90
2008,08,11,01,33,11.90
2008,08,11,01,34,11.90
2008,08,11,01,35,11.90
2008,08,11,01,36,11.90
2008,08,11,01,37,11.90
2008,08,11,01,38,11.90
2008,08,11,01,39,11.90
2008,08,11,01,40,11.90
2008,08,11,01,41,11.80
2008,08,11,01,42,11.80
2008,08,11,01,43,11.80
2008,08,11,01,44,11.80
2008,08,11,01,45,11.70
2008,08,11,01,46,11.70
2008,08,11,01,47,11.70
2008,08,11,01,48,11.60
2008,08,11,01,49,11.60
2008,08,11,01,50,11.60
2008,08,11,01,51,11.60
2008,08,11,01,52,11.60
2008,08,11,01,53,11.60
2008,08,11,01,54,11.60
2008,08,11,01,55,11.60
2008,08,11,01,56,11.60
2008,08,11,01,57,11.50
2008,08,11,01,58,11.50
2008,08,11,01,59,11.50
2008,08,11,02,00,11.50
2008,08,11,02,01,11.50
2008,08,11,02,02,11.50
2008,08,11,02,03,11.50
2008,08,11,02,04,11.50
2008,08,11,02,05,11.40
2008,08,11,02,06,11.40
2008,08,11,02,07,11.50
2008,08,11,02,08,11.50
2008,08,11,02,09,11.50
2008,08,11,02,10,11.50
2008,08,11,02,11,11.60
2008,08,11,02,12,11.60
2008,08,11,02,13,11.60
2008,08,11,02,14,11.60
2008,08,11,02,15,11.60
2008,08,11,02,16,11.60
2008,08,11,02,17,11.60
2008,08,11,02,18,11.60
2008,08,11,02,19,11.60
2008,08,11,02,20,11.70
2008,08,11,02,21,11.70
2008,08,11,02,22,11.70
2008,08,11,02,23,11.70
2008,08,11,02,24,11.70
2008,08,11,02,25,11.70
2008,08,11,02,26,11.70
2008,08,11,02,27,11.70
2008,08,11,02,28,11.70
2008,08,11,02,29,11.70
2008,08,11,02,30,11.70
2008,08,11,02,31,11.70
2008,08,11,02,32,11.70
2008,08,11,02,33,11.70
2008,08,11,02,34,11.70
2008,08,11,02,35,11.70
2008,08,11,02,36,11.70
2008,08,11,02,37,11.60
2008,08,11,02,38,11.60
2008,08,11,02,39,11.60
2008,08,11,02,40,11.60
2008,08,11,02,41,11.60
2008,08,11,02,42,11.60
2008,08,11,02,43,11.60
2008,08,11,02,44,11.60
2008,08,11,02,45,11.60
2008,08,11,02,46,11.60
2008,08,11,02,47,11.50
2008,08,11,02,48,11.50
2008,08,11,02,49,11.50
2008,08,11,02,50,11.50
2008,08,11,02,51,11.50
2008,08,11,02,52,11.40
2008,08,11,02,53,11.40
2008,08,11,02,54,11.40
2008,08,11,02,55,11.40
2008,08,11,02,56,11.30
2008,08,11,02,57,11.30
2008,08,11,02,58,11.30
2008,08,11,02,59,11.30
2008,08,11,03,00,11.30
2008,08,11,03,01,11.30
2008,08,11,03,02,11.20
2008,08,11,03,03,11.20
2008,08,11,03,04,11.20
2008,08,11,03,05,11.20
2008,08,11,03,06,11.20
2008,08,11,03,07,11.20
2008,08,11,03,08,11.10
2008,08,11,03,09,11.10
2008,08,11,03,10,11.10
2008,08,11,03,11,11.10
2008,08,11,03,12,11.10
2008,08,11,03,13,11.10
2008,08,11,03,14,11.10
2008,08,11,03,15,11.10
2008,08,11,03,16,11.10
2008,08,11,03,17,11.10
2008,08,11,03,18,11.00
2008,08,11,03,19,11.00
2008,08,11,03,20,11.00
2008,08,11,03,21,11.00
2008,08,11,03,22,11.00
2008,08,11,03,23,10.90
2008,08,11,03,24,10.90
2008,08,11,03,25,10.90
2008,08,11,03,26,10.90
2008,08,11,03,27,10.90
2008,08,11,03,28,10.80
2008,08,11,03,29,10.80
2008,08,11,03,30,10.80
2008,08,11,03,31,10.80
2008,08,11,03,32,10.70
2008,08,11,03,33,10.70
2008,08,11,03,34,10.70
2008,08,11,03,35,10.70
2008,08,11,03,36,10.70
2008,08,11,03,37,10.60
2008,08,11,03,38,10.60
2008,08,11,03,39,10.60
2008,08,11,03,40,10.60
2008,08,11,03,41,10.50
2008,08,11,03,42,10.50
2008,08,11,03,43,10.50
2008,08,11,03,44,10.50
2008,08,11,03,45,10.40
2008,08,11,03,46,10.40
2008,08,11,03,47,10.40
2008,08,11,03,48,10.40
2008,08,11,03,49,10.30
2008,08,11,03,50,10.30
2008,08,11,03,51,10.30
2008,08,11,03,52,10.30
2008,08,11,03,53,10.30
2008,08,11,03,54,10.30
2008,08,11,03,55,10.20
2008,08,11,03,56,10.20
2008,08,11,03,57,10.20
2008,08,11,03,58,10.20
2008,08,11,03,59,10.20
2008,08,11,04,00,10.20
2008,08,11,04,01,10.20
2008,08,11,04,02,10.20
2008,08,11,04,03,10.10
2008,08,11,04,08,10.10
2008,08,11,04,09,10.10
2008,08,11,04,10,10.10
2008,08,11,04,11,10.10
2008,08,11,04,12,10.10
2008,08,11,04,13,10.00
2008,08,11,04,14,10.00
2008,08,11,04,15,10.00
2008,08,11,04,16,10.00
2008,08,11,04,17,9.90
2008,08,11,04,18,9.90
2008,08,11,04,19,9.90
2008,08,11,04,20,9.90
2008,08,11,04,21,9.90
2008,08,11,04,22,9.90
2008,08,11,04,23,9.90
2008,08,11,04,24,9.90
2008,08,11,04,25,9.90
2008,08,11,04,26,9.90
2008,08,11,04,27,9.90
2008,08,11,04,28,9.90
2008,08,11,04,29,9.80
2008,08,11,04,30,9.80
2008,08,11,04,31,9.80
2008,08,11,04,32,9.80
2008,08,11,04,33,9.80
2008,08,11,04,34,9.80
2008,08,11,04,35,9.80
2008,08,11,04,36,9.80
2008,08,11,04,37,9.80
2008,08,11,04,38,9.80
2008,08,11,04,39,9.80
2008,08,11,04,40,9.80
2008,08,11,04,41,9.90
2008,08,11,04,42,9.90
2008,08,11,04,43,9.90
2008,08,11,04,44,9.90
2008,08,11,04,45,9.90
2008,08,11,04,46,9.80
2008,08,11,04,47,9.80
2008,08,11,04,48,9.80
2008,08,11,04,49,9.80
2008,08,11,04,50,9.80
2008,08,11,04,51,9.80
2008,08,11,04,52,9.80
2008,08,11,04,53,9.70
2008,08,11,04,54,9.70
2008,08,11,04,55,9.70
2008,08,11,04,56,9.70
2008,08,11,04,57,9.60
2008,08,11,04,58,9.60
2008,08,11,04,59,9.60
2008,08,11,05,00,9.60
2008,08,11,05,01,9.60
2008,08,11,05,02,9.60
2008,08,11,05,03,9.70
2008,08,11,05,04,9.60
2008,08,11,05,05,9.60
2008,08,11,05,06,9.60
2008,08,11,05,07,9.60
2008,08,11,05,08,9.50
2008,08,11,05,09,9.40
2008,08,11,05,10,9.40
2008,08,11,05,11,9.40
2008,08,11,05,12,9.30
2008,08,11,05,13,9.30
2008,08,11,05,14,9.40
2008,08,11,05,15,9.40
2008,08,11,05,16,9.40
2008,08,11,05,17,9.30
2008,08,11,05,18,9.30
2008,08,11,05,19,9.30
2008,08,11,05,20,9.20
2008,08,11,05,21,9.20
2008,08,11,05,22,9.20
2008,08,11,05,23,9.20
2008,08,11,05,24,9.20
2008,08,11,05,25,9.20
2008,08,11,05,26,9.10
2008,08,11,05,27,9.10
2008,08,11,05,28,9.10
2008,08,11,05,29,9.10
2008,08,11,05,30,9.10
2008,08,11,05,31,9.10
2008,08,11,05,32,9.10
2008,08,11,05,33,9.10
2008,08,11,05,34,9.00
2008,08,11,05,35,9.00
2008,08,11,05,36,8.90
2008,08,11,05,37,8.90
2008,08,11,05,38,8.90
2008,08,11,05,39,8.90
2008,08,11,05,40,8.90
2008,08,11,05,41,8.90
2008,08,11,05,42,8.80
2008,08,11,05,43,8.80
2008,08,11,05,44,8.80
2008,08,11,05,45,8.80
2008,08,11,05,46,8.80
2008,08,11,05,47,8.70
2008,08,11,05,48,8.70
2008,08,11,05,49,8.70
2008,08,11,05,50,8.70
2008,08,11,05,51,8.70
2008,08,11,05,52,8.70
2008,08,11,05,53,8.70
2008,08,11,05,54,8.70
2008,08,11,05,55,8.70
2008,08,11,05,56,8.70
2008,08,11,05,57,8.70
2008,08,11,05,58,8.70
2008,08,11,05,59,8.70
2008,08,11,06,00,8.70
2008,08,11,06,01,8.70
2008,08,11,06,02,8.70
2008,08,11,06,03,8.70
2008,08,11,06,04,8.60
2008,08,11,06,05,8.60
2008,08,11,06,06,8.60
2008,08,11,06,07,8.60
2008,08,11,06,08,8.60
2008,08,11,06,09,8.60
2008,08,11,06,10,8.60
2008,08,11,06,11,8.60
2008,08,11,06,12,8.70
2008,08,11,06,13,8.70
2008,08,11,06,14,8.70
2008,08,11,06,15,8.70
2008,08,11,06,16,8.80
2008,08,11,06,17,8.80
2008,08,11,06,18,8.80
2008,08,11,06,19,8.80
2008,08,11,06,20,8.90
2008,08,11,06,21,8.90
2008,08,11,06,22,8.90
2008,08,11,06,23,8.90
2008,08,11,06,24,8.90
2008,08,11,06,25,9.00
2008,08,11,06,26,9.00
2008,08,11,06,27,9.00
2008,08,11,06,28,9.10
2008,08,11,06,29,9.10
2008,08,11,06,30,9.10
2008,08,11,06,31,9.10
2008,08,11,06,32,9.20
2008,08,11,06,33,9.20
2008,08,11,06,34,9.20
2008,08,11,06,35,9.20
2008,08,11,06,36,9.20
2008,08,11,06,37,9.30
2008,08,11,06,38,9.30
2008,08,11,06,39,9.30
2008,08,11,06,40,9.30
2008,08,11,06,41,9.40
2008,08,11,06,42,9.40
2008,08,11,06,43,9.40
2008,08,11,06,44,9.50
2008,08,11,06,45,9.50
2008,08,11,06,46,9.50
2008,08,11,06,47,9.60
2008,08,11,06,48,9.60
2008,08,11,06,49,9.60
2008,08,11,06,50,9.60
2008,08,11,06,51,9.60
2008,08,11,06,52,9.70
2008,08,11,06,53,9.70
2008,08,11,06,54,9.70
2008,08,11,06,55,9.70
2008,08,11,06,56,9.80
2008,08,11,06,57,9.80
2008,08,11,06,58,9.80
2008,08,11,06,59,9.80
2008,08,11,07,00,9.90
2008,08,11,07,01,9.90
2008,08,11,07,02,9.90
2008,08,11,07,03,9.90
2008,08,11,07,04,9.90
2008,08,11,07,05,10.00
2008,08,11,07,06,10.00
2008,08,11,07,07,10.00
2008,08,11,07,08,10.10
2008,08,11,07,09,10.10
2008,08,11,07,10,10.10
2008,08,11,07,11,10.20
2008,08,11,07,12,10.20
2008,08,11,07,13,10.20
2008,08,11,07,14,10.30
2008,08,11,07,15,10.30
2008,08,11,07,16,10.30
2008,08,11,07,17,10.40
2008,08,11,07,18,10.40
2008,08,11,07,19,10.50
2008,08,11,07,20,10.60
2008,08,11,07,21,10.60
2008,08,11,07,22,10.70
2008,08,11,07,23,10.70
2008,08,11,07,24,10.70
2008,08,11,07,25,10.80
2008,08,11,07,26,10.80
2008,08,11,07,27,10.80
2008,08,11,07,28,10.90
2008,08,11,07,29,10.90
2008,08,11,07,30,11.00
2008,08,11,07,31,11.00
2008,08,11,07,32,11.10
2008,08,11,07,33,11.10
2008,08,11,07,34,11.20
2008,08,11,07,35,11.20
2008,08,11,07,36,11.30
2008,08,11,07,37,11.30
2008,08,11,07,38,11.40
2008,08,11,07,39,11.40
2008,08,11,07,40,11.40
2008,08,11,07,41,11.50
2008,08,11,07,42,11.50
2008,08,11,07,43,11.60
2008,08,11,07,44,11.60
2008,08,11,07,45,11.70
2008,08,11,07,46,11.70
2008,08,11,07,47,11.70
2008,08,11,07,48,11.80
2008,08,11,07,49,11.80
2008,08,11,07,50,11.90
2008,08,11,07,51,11.90
2008,08,11,07,52,11.90
2008,08,11,07,53,12.00
2008,08,11,07,54,12.00
2008,08,11,07,55,12.00
2008,08,11,07,56,12.10
2008,08,11,07,57,12.10
2008,08,11,07,58,12.20
2008,08,11,07,59,12.30
2008,08,11,08,00,12.30
2008,08,11,08,01,12.50
2008,08,11,08,02,12.50
2008,08,11,08,03,12.60
2008,08,11,08,04,12.70
2008,08,11,08,05,12.80
2008,08,11,08,06,12.80
2008,08,11,08,07,12.90
2008,08,11,08,08,13.00
2008,08,11,08,09,13.10
2008,08,11,08,10,13.20
2008,08,11,08,11,13.30
2008,08,11,08,12,13.40
2008,08,11,08,13,13.50
2008,08,11,08,14,13.60
2008,08,11,08,15,13.70
2008,08,11,08,16,13.80
2008,08,11,08,17,13.90
2008,08,11,08,18,13.90
2008,08,11,08,19,14.00
2008,08,11,08,20,14.10
2008,08,11,08,21,14.20
2008,08,11,08,22,14.20
2008,08,11,08,23,14.30
2008,08,11,08,24,14.30
2008,08,11,08,25,14.40
2008,08,11,08,26,14.50
2008,08,11,08,27,14.60
2008,08,11,08,28,14.70
2008,08,11,08,29,14.70
2008,08,11,08,30,14.80
2008,08,11,08,31,14.90
2008,08,11,08,32,15.00
2008,08,11,08,33,15.00
2008,08,11,08,34,15.00
2008,08,11,08,35,15.10
2008,08,11,08,36,15.20
2008,08,11,08,37,15.30
2008,08,11,08,38,15.40
2008,08,11,08,39,15.50
2008,08,11,08,40,15.70
2008,08,11,08,41,15.80
2008,08,11,08,42,15.80
2008,08,11,08,43,15.90
2008,08,11,08,44,16.00
2008,08,11,08,45,16.00
2008,08,11,08,46,16.10
2008,08,11,08,47,16.20
2008,08,11,08,48,16.20
2008,08,11,08,49,16.30
2008,08,11,08,50,16.40
2008,08,11,08,51,16.40
2008,08,11,08,52,16.40
2008,08,11,08,53,16.50
2008,08,11,08,54,16.60
2008,08,11,08,55,16.60
2008,08,11,08,56,16.60
2008,08,11,08,57,16.60
2008,08,11,08,58,16.60
2008,08,11,08,59,16.50
2008,08,11,09,00,16.40
2008,08,11,09,01,16.40
2008,08,11,09,02,16.40
2008,08,11,09,03,16.50
2008,08,11,09,04,16.60
2008,08,11,09,05,16.70
2008,08,11,09,06,16.70
2008,08,11,09,07,16.70
2008,08,11,09,08,16.80
2008,08,11,09,09,16.80
2008,08,11,09,10,16.80
2008,08,11,09,11,16.80
2008,08,11,09,12,16.90
2008,08,11,09,13,16.90
2008,08,11,09,14,17.00
2008,08,11,09,15,17.00
2008,08,11,09,16,17.10
2008,08,11,09,17,17.10
2008,08,11,09,18,17.10
2008,08,11,09,19,17.10
2008,08,11,09,20,17.20
2008,08,11,09,21,17.20
2008,08,11,09,22,17.20
2008,08,11,09,23,17.20
2008,08,11,09,24,17.20
2008,08,11,09,25,17.20
2008,08,11,09,26,17.20
2008,08,11,09,27,17.20
2008,08,11,09,28,17.20
2008,08,11,09,29,17.20
2008,08,11,09,30,17.20
2008,08,11,09,31,17.20
2008,08,11,09,32,17.20
2008,08,11,09,33,17.20
2008,08,11,09,34,17.10
2008,08,11,09,35,17.10
2008,08,11,09,36,17.10
2008,08,11,09,37,17.10
2008,08,11,09,38,17.10
2008,08,11,09,39,17.10
2008,08,11,09,40,17.20
2008,08,11,09,41,17.10
2008,08,11,09,42,17.20
2008,08,11,09,43,17.10
2008,08,11,09,44,17.10
2008,08,11,09,45,17.10
2008,08,11,09,46,17.10
2008,08,11,09,47,17.10
2008,08,11,09,48,17.20
2008,08,11,09,49,17.20
2008,08,11,09,50,17.20
2008,08,11,09,51,17.20
2008,08,11,09,52,17.20
2008,08,11,09,53,17.30
2008,08,11,09,54,17.30
2008,08,11,09,55,17.30
2008,08,11,09,56,17.20
2008,08,11,09,57,17.20
2008,08,11,09,58,17.20
2008,08,11,09,59,17.20
2008,08,11,10,00,17.30
2008,08,11,10,01,17.40
2008,08,11,10,02,17.40
2008,08,11,10,03,17.50
2008,08,11,10,04,17.50
2008,08,11,10,05,17.50
2008,08,11,10,06,17.50
2008,08,11,10,07,17.50
2008,08,11,10,08,17.40
2008,08,11,10,09,17.50
2008,08,11,10,10,17.50
2008,08,11,10,11,17.50
2008,08,11,10,12,17.50
2008,08,11,10,13,17.50
2008,08,11,10,14,17.40
2008,08,11,10,15,17.40
2008,08,11,10,16,17.40
2008,08,11,10,17,17.40
2008,08,11,10,18,17.30
2008,08,11,10,19,17.30
2008,08,11,10,20,17.30
2008,08,11,10,21,17.30
2008,08,11,10,22,17.30
2008,08,11,10,23,17.30
2008,08,11,10,24,17.30
2008,08,11,10,25,17.30
2008,08,11,10,26,17.20
2008,08,11,10,27,17.10
2008,08,11,10,28,17.00
2008,08,11,10,29,17.00
2008,08,11,10,30,16.90
2008,08,11,10,31,16.90
2008,08,11,10,32,16.90
2008,08,11,10,33,17.00
2008,08,11,10,34,17.10
2008,08,11,10,35,17.10
2008,08,11,10,36,17.20
2008,08,11,10,37,17.30
2008,08,11,10,38,17.30
2008,08,11,10,39,17.40
2008,08,11,10,40,17.40
2008,08,11,10,41,17.40
2008,08,11,10,42,17.40
2008,08,11,10,43,17.40
2008,08,11,10,44,17.50
2008,08,11,10,45,17.50
2008,08,11,10,46,17.50
2008,08,11,10,47,17.40
2008,08,11,10,48,17.40
2008,08,11,10,49,17.40
2008,08,11,10,50,17.50
2008,08,11,10,51,17.50
2008,08,11,10,52,17.50
2008,08,11,10,53,17.60
2008,08,11,10,54,17.60
2008,08,11,10,55,17.60
2008,08,11,10,56,17.60
2008,08,11,10,57,17.60
2008,08,11,10,58,17.60
2008,08,11,10,59,17.60
2008,08,11,11,00,17.60
2008,08,11,11,01,17.70
2008,08,11,11,02,17.70
2008,08,11,11,03,17.60
2008,08,11,11,04,17.60
2008,08,11,11,05,17.60
2008,08,11,11,06,17.60
2008,08,11,11,07,17.50
2008,08,11,11,08,17.40
2008,08,11,11,09,17.40
2008,08,11,11,10,17.50
2008,08,11,11,11,17.60
2008,08,11,11,12,17.70
2008,08,11,11,13,17.70
2008,08,11,11,14,17.80
2008,08,11,11,15,17.80
2008,08,11,11,16,17.70
2008,08,11,11,17,17.70
2008,08,11,11,18,17.70
2008,08,11,11,19,17.70
2008,08,11,11,20,17.60
2008,08,11,11,21,17.60
2008,08,11,11,22,17.40
2008,08,11,11,23,17.30
2008,08,11,11,24,17.40
2008,08,11,11,25,17.40
2008,08,11,11,26,17.50
2008,08,11,11,27,17.60
2008,08,11,11,28,17.60
2008,08,11,11,29,17.70
2008,08,11,11,30,17.80
2008,08,11,11,31,17.80
2008,08,11,11,32,17.80
2008,08,11,11,33,17.80
2008,08,11,11,34,17.80
2008,08,11,11,35,17.80
2008,08,11,11,36,17.80
2008,08,11,11,37,17.90
2008,08,11,11,38,17.90
2008,08,11,11,39,17.80
2008,08,11,11,40,17.80
2008,08,11,11,41,17.80
2008,08,11,11,42,17.90
2008,08,11,11,43,18.00
2008,08,11,11,44,18.10
2008,08,11,11,45,18.10
2008,08,11,11,46,18.00
2008,08,11,11,47,17.90
2008,08,11,11,48,17.80
2008,08,11,11,49,17.70
2008,08,11,11,50,17.70
2008,08,11,11,51,17.80
2008,08,11,11,52,17.80
2008,08,11,11,53,17.90
2008,08,11,11,54,18.00
2008,08,11,11,55,18.10
2008,08,11,11,56,18.20
2008,08,11,11,57,18.20
2008,08,11,11,58,18.30
2008,08,11,11,59,18.30
2008,08,11,12,00,18.30
2008,08,11,12,01,18.30
2008,08,11,12,02,18.20
2008,08,11,12,03,18.10
2008,08,11,12,04,18.00
2008,08,11,12,05,18.00
2008,08,11,12,06,18.00
2008,08,11,12,07,17.90
2008,08,11,12,08,17.80
2008,08,11,12,09,17.80
2008,08,11,12,10,17.70
2008,08,11,12,11,17.60
2008,08,11,12,12,17.60
2008,08,11,12,13,17.50
2008,08,11,12,14,17.50
2008,08,11,12,15,17.60
2008,08,11,12,16,17.70
2008,08,11,12,17,17.80
2008,08,11,12,18,17.80
2008,08,11,12,19,17.90
2008,08,11,12,20,18.00
2008,08,11,12,21,18.10
2008,08,11,12,22,18.20
2008,08,11,12,23,18.20
2008,08,11,12,24,18.20
2008,08,11,12,25,18.30
2008,08,11,12,26,18.30
2008,08,11,12,27,18.30
2008,08,11,12,28,18.20
2008,08,11,12,29,18.10
2008,08,11,12,30,18.10
2008,08,11,12,31,18.10
2008,08,11,12,32,18.10
2008,08,11,12,33,18.10
2008,08,11,12,34,18.20
2008,08,11,12,35,18.30
2008,08,11,12,36,18.30
2008,08,11,12,37,18.30
2008,08,11,12,38,18.30
2008,08,11,12,39,18.30
2008,08,11,12,40,18.40
2008,08,11,12,41,18.40
2008,08,11,12,42,18.50
2008,08,11,12,43,18.60
2008,08,11,12,44,18.60
2008,08,11,12,45,18.50
2008,08,11,12,46,18.40
2008,08,11,12,47,18.40
2008,08,11,12,48,18.40
2008,08,11,12,49,18.40
2008,08,11,12,50,18.40
2008,08,11,12,51,18.40
2008,08,11,12,52,18.30
2008,08,11,12,53,18.40
2008,08,11,12,54,18.50
2008,08,11,12,55,18.60
2008,08,11,12,56,18.70
2008,08,11,12,57,18.60
2008,08,11,12,58,18.60
2008,08,11,12,59,18.60
2008,08,11,13,00,18.70
2008,08,11,13,01,18.70
2008,08,11,13,02,18.70
2008,08,11,13,03,18.70
2008,08,11,13,04,18.60
2008,08,11,13,05,18.50
2008,08,11,13,06,18.40
2008,08,11,13,07,18.40
2008,08,11,13,08,18.40
2008,08,11,13,09,18.30
2008,08,11,13,10,18.40
2008,08,11,13,11,18.40
2008,08,11,13,12,18.50
2008,08,11,13,13,18.60
2008,08,11,13,14,18.60
2008,08,11,13,15,18.60
2008,08,11,13,16,18.70
2008,08,11,13,17,18.70
2008,08,11,13,18,18.70
2008,08,11,13,19,18.70
2008,08,11,13,20,18.70
2008,08,11,13,21,18.70
2008,08,11,13,22,18.70
2008,08,11,13,23,18.60
2008,08,11,13,24,18.60
2008,08,11,13,25,18.60
2008,08,11,13,26,18.70
2008,08,11,13,27,18.70
2008,08,11,13,28,18.70
2008,08,11,13,29,18.60
2008,08,11,13,30,18.50
2008,08,11,13,31,18.40
2008,08,11,13,32,18.40
2008,08,11,13,33,18.30
2008,08,11,13,34,18.10
2008,08,11,13,35,18.00
2008,08,11,13,36,17.80
2008,08,11,13,37,17.80
2008,08,11,13,38,17.80
2008,08,11,13,39,17.70
2008,08,11,13,40,17.70
2008,08,11,13,41,17.70
2008,08,11,13,42,17.80
2008,08,11,13,43,17.80
2008,08,11,13,44,17.80
2008,08,11,13,45,17.80
2008,08,11,13,46,17.80
2008,08,11,13,47,17.80
2008,08,11,13,48,17.90
2008,08,11,13,49,17.90
2008,08,11,13,50,17.80
2008,08,11,13,51,17.90
2008,08,11,13,52,18.00
2008,08,11,13,53,18.10
2008,08,11,13,54,18.10
2008,08,11,13,55,18.10
2008,08,11,13,56,18.20
2008,08,11,13,57,18.30
2008,08,11,13,58,18.50
2008,08,11,13,59,18.70
2008,08,11,14,00,18.80
2008,08,11,14,01,19.00
2008,08,11,14,02,19.20
2008,08,11,14,03,19.20
2008,08,11,14,04,19.40
2008,08,11,14,05,19.40
2008,08,11,14,06,19.50
2008,08,11,14,07,19.50
2008,08,11,14,08,19.50
2008,08,11,14,09,19.60
2008,08,11,14,10,19.60
2008,08,11,14,11,19.70
2008,08,11,14,12,19.80
2008,08,11,14,13,19.90
2008,08,11,14,14,20.00
2008,08,11,14,15,20.10
2008,08,11,14,16,20.20
2008,08,11,14,17,20.30
2008,08,11,14,18,20.40
2008,08,11,14,19,20.60
2008,08,11,14,20,20.70
2008,08,11,14,21,20.80
2008,08,11,14,22,20.80
2008,08,11,14,23,20.70
2008,08,11,14,24,20.70
2008,08,11,14,25,20.60
2008,08,11,14,26,20.50
2008,08,11,14,27,20.40
2008,08,11,14,28,20.40
2008,08,11,14,29,20.40
2008,08,11,14,30,20.40
2008,08,11,14,31,20.50
2008,08,11,14,32,20.50
2008,08,11,14,33,20.60
2008,08,11,14,34,20.70
2008,08,11,14,35,20.70
2008,08,11,14,36,20.70
2008,08,11,14,37,20.70
2008,08,11,14,38,20.80
2008,08,11,14,39,20.80
2008,08,11,14,40,20.80
2008,08,11,14,41,20.70
2008,08,11,14,42,20.80
2008,08,11,14,43,20.80
2008,08,11,14,44,20.90
2008,08,11,14,45,20.90
2008,08,11,14,46,20.90
2008,08,11,14,47,20.90
2008,08,11,14,48,21.00
2008,08,11,14,49,21.10
2008,08,11,14,50,21.00
2008,08,11,14,51,21.00
2008,08,11,14,52,21.10
2008,08,11,14,53,21.00
2008,08,11,14,54,21.00
2008,08,11,14,55,20.90
2008,08,11,14,56,20.90
2008,08,11,14,57,20.90
2008,08,11,14,58,20.90
2008,08,11,14,59,21.00
2008,08,11,15,00,21.10
2008,08,11,15,01,21.00
2008,08,11,15,02,21.00
2008,08,11,15,03,21.10
2008,08,11,15,04,21.10
2008,08,11,15,05,21.20
2008,08,11,15,06,21.10
2008,08,11,15,07,21.10
2008,08,11,15,08,21.10
2008,08,11,15,09,21.20
2008,08,11,15,10,21.30
2008,08,11,15,11,21.30
2008,08,11,15,12,21.40
2008,08,11,15,13,21.40
2008,08,11,15,14,21.40
2008,08,11,15,15,21.30
2008,08,11,15,16,21.30
2008,08,11,15,17,21.30
2008,08,11,15,18,21.30
2008,08,11,15,19,21.30
2008,08,11,15,20,21.40
2008,08,11,15,21,21.40
2008,08,11,15,22,21.40
2008,08,11,15,23,21.40
2008,08,11,15,24,21.40
2008,08,11,15,25,21.40
2008,08,11,15,26,21.40
2008,08,11,15,27,21.50
2008,08,11,15,28,21.50
2008,08,11,15,29,21.60
2008,08,11,15,30,21.60
2008,08,11,15,31,21.60
2008,08,11,15,32,21.60
2008,08,11,15,33,21.60
2008,08,11,15,34,21.70
2008,08,11,15,35,21.70
2008,08,11,15,36,21.70
2008,08,11,15,37,21.60
2008,08,11,15,38,21.60
2008,08,11,15,39,21.70
2008,08,11,15,40,21.70
2008,08,11,15,41,21.60
2008,08,11,15,42,21.60
2008,08,11,15,43,21.60
2008,08,11,15,44,21.60
2008,08,11,15,45,21.70
2008,08,11,15,46,21.70
2008,08,11,15,47,21.70
2008,08,11,15,48,21.80
2008,08,11,15,49,21.80
2008,08,11,15,50,21.70
2008,08,11,15,51,21.60
2008,08,11,15,52,21.50
2008,08,11,15,53,21.50
2008,08,11,15,54,21.40
2008,08,11,15,55,21.40
2008,08,11,15,56,21.40
2008,08,11,15,57,21.30
2008,08,11,15,58,21.30
2008,08,11,15,59,21.30
2008,08,11,16,00,21.20
2008,08,11,16,01,21.20
2008,08,11,16,02,21.20
2008,08,11,16,03,21.20
2008,08,11,16,04,21.10
2008,08,11,16,05,21.00
2008,08,11,16,06,21.00
2008,08,11,16,07,21.00
2008,08,11,16,08,21.00
2008,08,11,16,09,21.10
2008,08,11,16,10,21.10
2008,08,11,16,11,21.00
2008,08,11,16,12,21.00
2008,08,11,16,13,21.10
2008,08,11,16,14,21.20
2008,08,11,16,15,21.20
2008,08,11,16,16,21.30
2008,08,11,16,17,21.30
2008,08,11,16,18,21.30
2008,08,11,16,19,21.30
2008,08,11,16,20,21.30
2008,08,11,16,21,21.30
2008,08,11,16,22,21.30
2008,08,11,16,23,21.20
2008,08,11,16,24,21.30
2008,08,11,16,25,21.20
2008,08,11,16,26,21.20
2008,08,11,16,27,21.10
2008,08,11,16,28,21.10
2008,08,11,16,29,21.20
2008,08,11,16,30,21.20
2008,08,11,16,31,21.30
2008,08,11,16,32,21.30
2008,08,11,16,33,21.40
2008,08,11,16,34,21.50
2008,08,11,16,35,21.70
2008,08,11,16,36,21.80
2008,08,11,16,37,21.80
2008,08,11,16,38,21.80
2008,08,11,16,39,21.90
2008,08,11,16,40,21.90
2008,08,11,16,41,21.90
2008,08,11,16,42,21.80
2008,08,11,16,43,21.80
2008,08,11,16,44,21.80
2008,08,11,16,45,21.80
2008,08,11,16,46,21.70
2008,08,11,16,47,21.80
2008,08,11,16,48,21.80
2008,08,11,16,49,21.80
2008,08,11,16,50,21.80
2008,08,11,16,51,21.80
2008,08,11,16,52,21.80
2008,08,11,16,53,21.70
2008,08,11,16,54,21.60
2008,08,11,16,55,21.50
2008,08,11,16,56,21.40
2008,08,11,16,57,21.40
2008,08,11,16,58,21.40
2008,08,11,16,59,21.40
2008,08,11,17,00,21.40
2008,08,11,17,01,21.40
2008,08,11,17,02,21.40
2008,08,11,17,03,21.50
2008,08,11,17,04,21.40
2008,08,11,17,05,21.50
2008,08,11,17,06,21.60
2008,08,11,17,07,21.60
2008,08,11,17,08,21.70
2008,08,11,17,09,21.70
2008,08,11,17,10,21.80
2008,08,11,17,11,21.80
2008,08,11,17,12,21.90
2008,08,11,17,13,21.90
2008,08,11,17,14,21.80
2008,08,11,17,15,21.80
2008,08,11,17,16,21.70
2008,08,11,17,17,21.70
2008,08,11,17,18,21.70
2008,08,11,17,19,21.70
2008,08,11,17,20,21.80
2008,08,11,17,21,21.80
2008,08,11,17,22,21.80
2008,08,11,17,23,21.80
2008,08,11,17,24,21.80
2008,08,11,17,25,21.80
2008,08,11,17,26,21.80
2008,08,11,17,27,21.80
2008,08,11,17,28,21.90
2008,08,11,17,29,22.00
2008,08,11,17,30,22.10